STARLINK-34292

Last updated on Thu Jul 03 2025 00:02:07 GMT+0000 (Coordinated Universal Time)

1 64390U 25127W 25183.58335648 -.01565109 00000+0 -18780-1 0 9993 2 64390 42.9999 155.3466 0001437 275.5983 346.5844 15.63125382 4206
UTC large
Height (km)
Speed (km/s)
/
Latitude / Longitude
Inclination (degrees)
Orbital Period (minutes)
Azimuth
Elevation
Range (km)
Doppler Factor

Next 0 passes for location: London (51.5072 / 0.1276)

Sorry there are no passes over London.